Regional Weather Roundup
Issued by NWS

Home | Current Version | Previous Version | Text Only | Print | Product List | Glossary On
Versions: 1 2 3 4 5 6 7 8 9 10 11 12 13 14 15 16 17 18 19 20 21 22 23 24 25 26 27 28 29 30 31 32 33 34 35 36 37 38 39 40 41 42 43 44 45 46 47 48 49 50
000
ASUS44 KFWD 041315
RWRTX
NORTH TEXAS HOURLY WEATHER ROUNDUP
NATIONAL WEATHER SERVICE FORT WORTH TX
700 AM CST WED MAR 04 2015

NOTE: "FAIR" INDICATES FEW OR NO CLOUDS BELOW 12,000 FEET WITH NO
SIGNIFICANT WEATHER AND/OR OBSTRUCTIONS TO VISIBILITY.

TXZ118-119-041400-
DALLAS/FORT WORTH METROPLEX

CITY           SKY/WX    TMP DP  RH WIND       PRES   REMARKS
DFW AIRPORT    CLOUDY    50  49  96 N12       29.90R
DALLAS LOVE    LGT RAIN  52  51  97 N9        29.89R FOG
FTW MEACHAM    LGT RAIN  51  49  92 N12       29.90R
DAL-EXECUTIVE  FOG       52  52 100 N8        29.88S VSB 1
FTW-ALLIANCE   DRIZZLE   49  48  97 N12       29.90R FOG
FTW-SPINKS     LGT RAIN  52  52 100 N6        29.90S VSB 1
ARLINGTON      LGT RAIN  53  50  89 N8        29.88S FOG
ADDISON        LGT RAIN  52  50  93 MISG      29.91R FOG
MESQUITE       CLOUDY    48  48 100 N9        29.90  FOG
LANCASTER      LGT RAIN  51  50  95 N3        29.90R
$$

TXZ091>094-102>105-117-120-121-131>134-041400-
NORTH CENTRAL TEXAS

CITY           SKY/WX    TMP DP  RH WIND       PRES   REMARKS
SHRMAN/DENISON DRIZZLE   46  46 100 N10       29.94S
GAINESVILLE    LGT RAIN  44  43  98 N9        29.95S WCI  39
BOWIE          LGT RAIN  43  43 100 N10       29.93R WCI  37
BRIDGEPORT     LGT RAIN  48  48 100 NE5       29.93S
DECATUR        LGT RAIN  47  47 100 NE9       29.91R
DENTON         CLOUDY    49  47  93 N9        29.92R
MCKINNEY       CLOUDY    49  48  97 N12       29.90S
GREENVILLE     LGT RAIN  50  48  93 N8        29.91R
TERRELL        LGT RAIN  53  51  93 N9        29.90R FOG
WAXAHACHIE     DRIZZLE   53  53 100 N7        29.89S
CLEBURNE       LGT RAIN  52  52 100 NE10      29.89R
GRANBURY       CLOUDY    52  51  95 CALM      29.90R FOG
$$

TXZ083>090-098>101-113>116-127>130-139>142-154-155-041400-
WESTERN NORTH TEXAS

CITY           SKY/WX    TMP DP  RH WIND       PRES   REMARKS
WICHITA FALLS  LGT RAIN  37  33  85 NE21      29.95F WCI  26
WF-KICKAPOO    CLOUDY    39  36  87 NE20      29.96R WCI  30
VERNON         CLOUDY    37  27  65 N14G23    29.99S WCI  29
ABILENE        LGT RAIN  51  50  96 E8        29.87R
ABILENE-DYESS  LGT RAIN  51  50  97 NE5       29.86R
BRECKENRIDGE   LGT RAIN  52  52  99 E8        29.88F
GRAHAM         RAIN      46  46  99 N10G16    29.90R
MINERAL WELLS  LGT RAIN  50  50 100 N10       29.89R FOG
STEPHENVILLE   CLOUDY    53  51  95 NE6       29.89R VSB 1
COMANCHE       CLOUDY    53  53 100 CALM      29.85R FOG
COLEMAN        CLOUDY    51  51 100 N5        29.84R FOG
$$

TXZ143>147-156>162-174-175-041400-
CENTRAL TEXAS

CITY           SKY/WX    TMP DP  RH WIND       PRES   REMARKS
WACO           FOG       54  54 100 CALM      29.84F VSB 1/4
WACO-MCGREGOR  CLOUDY    57  54  88 NE3       29.85S VSB<1/4
HILLSBORO      FOG       55  54  97 N8        29.86R VSB 3/4
CORSICANA      LGT RAIN  55  53  93 N5        29.87F VSB 1/2
MEXIA          FOG      N/A N/A N/A CALM      29.85F VSB 1/4
HEARNE         FOG       63  63  99 CALM      29.86S VSB 3/4
CAMERON        FOG       57  57 100 CALM      29.85S VSB 1/4
TEMPLE         CLOUDY    59  57  94 SE3       29.84S VSB 1/4
KILLEEN        LGT RAIN  59  59 100 SE10      29.84R VSB 1/8
KILLEEN-SKYLRK CLOUDY    61  57  88 SE3       29.83R VSB 1/4
FORT HOOD      FOG       61  61 100 SE9       29.82S VSB 1/2
GATESVILLE     FOG       59  59 100 CALM      29.86S VSB<1/4
HAMILTON       CLOUDY    57  57 100 SE5       29.86R
LAMPASAS       LGT RAIN  58  57  97 CALM      29.83R VSB<1/4
$$

TXZ095>097-106>112-122>126-135>138-148>153-164>167-041400-
EAST TEXAS

CITY           SKY/WX    TMP DP  RH WIND       PRES   REMARKS
PARIS          CLOUDY    46  45  93 N6        29.92S
SULPHUR SPRNGS LGT RAIN  48  48 100 N3        29.92F
MOUNT PLEASANT CLOUDY    53  53 100 N6        29.90S
GILMER         HVY RAIN  58  58 100 SE5       29.87S
MINEOLA        DRZL/FOG  55  55 100 NW8       29.89R VSB 1
TYLER          LGT RAIN  62  61  96 CALM      29.87S VSB 1/2
LONGVIEW       FOG       61  60  97 SE3       29.86F VSB 1
MARSHALL       CLOUDY    67  65  92 CALM      29.89S
ATHENS         FOG       57  57 100 CALM      29.86S VSB 1/2
PALESTINE      LGT RAIN  65  65 100 CALM      29.88R VSB 3/4
JACKSONVILLE   DRIZZLE   66  65  97 S7        29.89R
HENDERSON      CLOUDY    65  65 100 S5        29.88S
NACOGDOCHES    CLOUDY    64  63  94 SE6       29.89S
LUFKIN         CLOUDY    68  65  90 SE5       29.89R FOG
$$

SUPPLEMENTAL OBSERVATIONS (CENTRAL)

CITY           SKY/WX    TMP DP  RH WIND       PRES   REMARKS
$$

SUPPLEMENTAL OBSERVATIONS (WEST)

CITY           SKY/WX    TMP DP  RH WIND       PRES   REMARKS
$$

SUPPLEMENTAL OBSERVATIONS (EAST)

CITY           SKY/WX    TMP DP  RH WIND       PRES   REMARKS
$$

SUPPLEMENTAL OBSERVATIONS ARE A COLLECTION OF AUTOMATED INSTRUMENTS
THAT ARE MAINTAINED BY A VARIETY OF FEDERAL AND STATE AGENCIES.
CERTAIN ELEMENTS...SUCH AS HUMIDITY VALUES AND SUSTAINED WIND
SPEEDS...MAY BE APPROXIMATED.




USA.gov is the U.S. government's official web portal to all federal, state and local government web resources and services.